Regional Weather Roundup
Issued by NWS Northern Indiana

Home | Current Version | Previous Version | Text Only | Print | Product List | Glossary On
Versions: 1 2 3 4 5 6 7 8 9 10 11 12 13 14 15 16 17 18 19 20 21 22 23 24 25 26 27 28 29 30 31 32 33 34 35 36 37 38 39 40 41 42 43 44 45 46 47 48 49 50
000
ASUS43 KIWX 260510
RWRIWX

KIWX WEATHER ROUNDUP
NATIONAL WEATHER SERVICE NORTHERN INDIANA
100 AM EDT TUE JUL 26 2016

NOTE: "FAIR" INDICATES FEW OR NO CLOUDS BELOW 12,000 FEET WITH NO
SIGNIFICANT WEATHER AND/OR OBSTRUCTIONS TO VISIBILITY.

* THESE STATIONS ARE NOT UNDER NWS QUALITY CONTROL. THEY ALSO MAY NOT
  REPORT WEATHER SUCH AS PRECIPITATION OR FOG.

INZ001>027-260600-
NORTHERN INDIANA

CITY           SKY/WX    TMP DP  RH WIND       PRES   REMARKS
GARY*          CLOUDY    71  71  99 CALM      30.03S
VALPARAISO     CLOUDY    68  65  90 NE3       30.04S
MICHIGAN CITY* CLOUDY    66  66 100 CALM      30.04S
LAPORTE*       CLOUDY   N/A N/A N/A CALM      30.04S
KNOX*          PTCLDY    64  63  94 CALM      30.03S
SOUTH BEND     CLOUDY    67  64  90 NW3       30.04S
GOSHEN         PTCLDY    66  62  87 CALM      30.03S
MONTICELLO*    CLOUDY    68  63  83 CALM      30.02S
LOGANSPORT*    CLOUDY    68  64  88 CALM      30.04R
ROCHESTER*     CLOUDY    70  68  94 CALM      30.03F
WARSAW*        CLOUDY    64  63  94 CALM      30.03S
ANGOLA*        CLEAR     64  57  77 CALM      30.03S
FORT WAYNE     MOCLDY    70  63  78 N6        30.03R
HUNTINGTON*    CLOUDY    68  65  88 CALM      30.02S
PERU/GRISSOM   PTCLDY    68  66  94 CALM      30.02R
MARION*        MOCLDY    66  64  91 CALM      30.04R

$$
INZ028>050-260600-
CENTRAL INDIANA

CITY           SKY/WX    TMP DP  RH WIND       PRES   REMARKS
LAFAYETTE      CLOUDY    69  66  90 CALM      30.02R
KOKOMO*        MOCLDY    66  61  82 CALM      30.03S
MUNCIE*        CLOUDY    72  67  84 CALM      30.03R
INDIANAPOLIS   CLOUDY    78  68  71 N7        30.02S

$$
MIZ043>046-050>051-056>058-064>065-071>073-077>080-260600-
SOUTHWEST LOWER MICHIGAN

CITY           SKY/WX    TMP DP  RH WIND       PRES   REMARKS
BATTLE CREEK   CLOUDY    65  64  97 SW3       30.03S
BENTON HARBOR  CLEAR     66  63  90 CALM      30.02S
COLDWATER*     CLOUDY    65  64  96 CALM      30.03S
HILLSDALE*     CLOUDY    65  62  89 NW3       30.03R
HOLLAND        CLEAR     67  65  93 CALM      30.04R
GRAND RAPIDS   CLEAR     69  62  78 W6        30.03R
KALAMAZOO      CLOUDY    68  62  81 W3        30.03S
STURGIS*       CLOUDY    64  62  95 CALM      30.03S
THREE RIVERS*  FAIR      67  63  86 CALM      30.04S

$$
OHZ001>008-015>018-024>025-260600-
NORTHWEST OHIO

CITY           SKY/WX    TMP DP  RH WIND       PRES   REMARKS
DEFIANCE       CLOUDY    73  64  73 CALM      30.01R
FINDLAY        CLOUDY    72  65  78 W5        30.00R
TOLEDO EXPRESS CLOUDY    73  67  81 NW7       29.99S
TOLEDO METCALF PTCLDY    74  68  81 NW8       30.00R
LIMA           CLOUDY    71  67  87 NW6       30.02R

$$
AND FOR LAKE MICHIGAN COASTAL AND OPEN LAKE BUOY OBSERVATIONS

STATION/POSITION TEMP    WIND        PRES    VSBY  WAVE
                 AIR SEA DIR/SP/G                  HT/PER
                 (F)     (DEG/KT/KT) (MB)    (MI)  (FT/S)
CALUMET HARBOR    75      90/  4/  5 1016.0
MICHIGAN CITY     75     140/  3/  3   N/A
BURNS HARBOR      78      90/  5/  6 1016.9S
SAINT JOSEPH      72      CALM  /  1 1017.6R
SOUTH LAKE BUOY   74 74  230/  4/  4 1016.0R         0
4 MI NW BRIDGMAN  75 76  200/  4/  6 1016.4R         1/ 3
MICHIGAN CITY     75 75  170/  4/  4   N/A           1

$$
&&




USA.gov is the U.S. government's official web portal to all federal, state and local government web resources and services.